Change the Weather History Date:

Thursday, August 29, 2013

  Actual Average Record
Temperature  
Mean Temperature 71 °F -  
Max Temperature 91 °F - - ()
Min Temperature 51 °F - - ()
Cooling Degree Days 6    
Growing Degree Days 21 (Base 50)    
Moisture  
Dew Point 46 °F    
Average Humidity 44    
Maximum Humidity 79    
Minimum Humidity 11    
Precipitation  
Precipitation 0.00 in - - ()
Sea Level Pressure  
Sea Level Pressure 29.94 in    
Wind  
Wind Speed 5 mph ()    
Max Wind Speed 21 mph    
Max Gust Speed 30 mph    
T = Trace of Precipitation, MM = Missing Value Source: Averaged Metar Reports

Daily Weather History Graph

Daily Weather History Graph

Search for Another Location

Airport or City:

Trip Planner

Search our weather history database for the weather conditions in past years. The results will help you decide how hot, cold, wet, or windy it might be!

Date:

Astronomy

Aug. 29, 2013 Rise Set
Actual Time 6:29 AM CST 8:07 PM CST
Civil Twilight 5:55 AM CST 8:40 PM CST
Nautical Twilight 5:13 AM CST 9:22 PM CST
Astronomical Twilight 4:27 AM CST 10:07 PM CST
Moon 12:05 AM CST (8/29) 3:56 PM CST (8/29)
Length of Visible Light 14h 45m
Length of Day
13h 38m
Last Quarter, 37% of the Moon is Illuminated
Aug 29
Last Quarter
Sep 5
New
Sep 12
First Quarter
Sep 19
Full
Sep 26
Last Quarter

Hourly Weather History & Observations

Time (CST) Temp. Dew Point Humidity Pressure Visibility Wind Dir Wind Speed Gust Speed Precip Events Conditions
12:00 AM 62 °F 47 °F 47% 29.91 in - SSW 5.8 mph - -  
12:00 AM 61.5 °F 46.9 °F 59% 29.91 in - SSW 5.8 mph - N/A   Unknown
1:00 AM 59.2 °F 47.3 °F 65% 29.91 in - SSW 4.6 mph - N/A   Unknown
2:00 AM 57.6 °F 47.8 °F 70% 29.92 in - South 3.5 mph - N/A   Unknown
3:00 AM 54.7 °F 45.3 °F 71% 29.93 in - SSW 2.3 mph - N/A   Unknown
4:00 AM 56.7 °F 46.0 °F 68% 29.93 in - SSW 3.5 mph - N/A   Unknown
5:00 AM 52.7 °F 44.8 °F 74% 29.94 in - South 2.3 mph - N/A   Unknown
6:00 AM 54 °F 46 °F 66% 29.95 in - WSW 1.2 mph - -  
6:00 AM 54.1 °F 45.9 °F 74% 29.95 in - WSW 1.2 mph - N/A   Unknown
7:00 AM 54.1 °F 47.7 °F 79% 29.96 in - SW 2.3 mph - N/A   Unknown
8:00 AM 64.9 °F 51.4 °F 62% 29.97 in - SW 2.3 mph - N/A   Unknown
9:00 AM 73.4 °F 50.2 °F 44% 29.99 in - West 2.3 mph - N/A   Unknown
10:00 AM 80.1 °F 47.1 °F 31% 29.98 in - WSW 6.9 mph - N/A   Unknown
11:00 AM 83.3 °F 43.7 °F 25% 29.97 in - West 11.5 mph - N/A   Unknown
12:00 PM 85 °F 44 °F 15% 29.98 in - WNW 9.2 mph - -  
12:00 PM 85.5 °F 44.1 °F 23% 29.98 in - WNW 9.2 mph 19.6 mph N/A   Unknown
1:00 PM 86.5 °F 42.4 °F 21% 29.97 in - WNW 10.4 mph - N/A   Unknown
2:00 PM 88.5 °F 42.8 °F 20% 29.96 in - WNW 8.1 mph - N/A   Unknown
3:00 PM 89.6 °F 41.4 °F 18% 29.94 in - NNW 9.2 mph - N/A   Unknown
4:00 PM 90.9 °F 40.3 °F 17% 29.93 in - North 8.1 mph - N/A   Unknown
5:00 PM 90.3 °F 41.2 °F 18% 29.91 in - NNE 4.6 mph - N/A   Unknown
6:00 PM 89 °F 42 °F 11% 29.89 in - ENE 5.8 mph - -  
6:00 PM 89.4 °F 42.3 °F 19% 29.89 in - ENE 5.8 mph - N/A   Unknown
7:00 PM 83.1 °F 47.8 °F 29% 29.90 in - East 3.5 mph - N/A   Unknown
8:00 PM 76.5 °F 47.8 °F 36% 29.89 in - SE 9.2 mph - N/A   Unknown
9:00 PM 75.2 °F 47.7 °F 38% 29.89 in - South 6.9 mph - N/A   Unknown
10:00 PM 68.5 °F 55.2 °F 62% 29.96 in - West 20.7 mph 29.9 mph N/A   Unknown
11:00 PM 65.8 °F 56.3 °F 71% 30.02 in - WSW 10.4 mph - N/A   Unknown